Presure
124 134 142 133 134 113 129 135 135 139 131 133 124 117 144 110 115 111 123 126 125 151 132 150 147 142 145 146 149 145 146 150 146 147 137 143 147 152 151 154 155 154 157
152 130 137 133 139 130 133 132 146 143 132 139 148 130 138 147 139 141 153 160 130 159 150 97 102 143 140 146 153 134 137 141 151 140 142 151 153 149 152 154 166 162 145
162 136 137 138 129 138 87 88 132 148 130 123 142 150 132 149 121 138 144 150 95 153 128 162 171 142 141 147 162 98 155 156 161 163 160 161 135 153 175 149 180 148 149
161 171 134 125 88 91 126 111 139 127 129 134 139 137 140 123 147 84 91 111 162 152 116 130 122 121 171 131 169 143 146 152 154 183 170 179 182 127 124 159 97 180 219
151 149 130 119 125 116 118 116 127 122 138 140 134 111 116 115 131 110 152 155 132 139 144 133 142 141 155 155 162 153 179 141 173 116 169 180 155 106 150 134 155 231 209
91 152 89 150 145 138 145 124 134 133 133 138 131 128 132 104 139 141 150 156 145 143 125 153 174 150 166 172 156 169 177 134 162 166 139 188 144 191 141 162 291 247 122
90 101 146 104 119 103 159 132 147 156 128 142 132 131 137 148 139 119 149 149 146 148 158 143 157 84 135 142 161 185 166 149 145 173 169 146 145 143 208 128 256 251 135
136 168 114 118 99 146 146 102 127 150 123 120 133 109 127 102 157 147 140 166 140 152 155 84 124 90 152 115 143 136 85 96 157 185 192 206 208 204 210 252 237 238 207
94 94 93 96 93 141 148 127 156 142 112 141 142 128 133 142 92 93 152 147 120 92 116 108 106 140 132 90 85 86 106 132 187 151 197 198 207 201 221 149 228 226 217
96 85 91 95 90 91 78 95 95 138 120 129 99 127 146 148 146 93 88 91 98 120 95 130 99 96 144 95 96 157 176 97 171 109 163 207 210 211 216 228 132 216 215
94 87 89 155 92 91 101 96 151 129 142 116 99 109 93 89 90 89 86 90 82 82 111 88 82 143 96 110 182 181 92 91 186 185 194 195 203 220 227 222 223 217 214
94 184 100 93 142 87 169 94 131 148 90 97 89 90 90 86 86 84 88 84 80 90 86 91 96 174 90 83 82 103 157 189 193 187 194 179 207 247 230 221 219 211 206
107 89 103 97 90 113 100 90 91 116 94 96 89 86 83 90 87 84 88 88 87 84 91 94 97 116 87 85 88 103 103 102 179 185 184 197 217 235 216 221 217 206 206
106 205 91 93 112 95 84 89 157 92 159 92 96 113 90 92 86 82 90 86 146 85 81 93 108 136 181 91 89 189 106 108 108 106 126 198 215 227 212 217 207 211 212
188 156 96 104 98 95 98 222 83 85 111 99 99 98 96 158 86 128 83 83 86 77 97 180 183 149 87 90 98 138 104 108 181 165 138 209 226 206 214 212 208 208 205
98 95 92 79 98 94 101 95 84 89 92 101 102 137 189 192 169 162 160 136 106 124 157 105 163 168 104 185 183 138 106 107 110 117 182 206 194 203 187 191 193 192 190
233 223 242 171 93 79 107 104 86 89 106 107 111 217 195 174 104 112 106 112 130 104 100 107 107 83 111 106 106 99 100 106 109 110 111 211 199 181 178 190 187 180 188
215 230 229 228 207 198 197 91 94 87 177 105 97 126 223 148 113 100 166 152 100 79 116 125 115 82 103 101 111 95 115 181 200 125 154 207 199 180 178 195 188 187 185
80 140 242 220 110 126 92 188 171 194 192 146 103 122 125 211 130 129 114 94 105 109 115 110 105 100 113 105 96 116 204 200 190 198 167 201 188 194 179 184 193 177 184
137 96 129 247 245 85 238 114 190 105 182 134 139 198 171 124 185 97 89 109 114 115 93 93 105 87 109 92 102 111 124 126 193 207 201 197 186 190 184 182 193 180 191
206 202 83 96 262 203 89 234 209 90 72 109 184 111 187 134 116 93 103 189 175 114 91 83 88 114 107 106 101 117 192 181 210 204 199 192 182 188 189 183 198 192 177
224 204 205 225 226 97 85 96 173 101 82 94 93 96 96 100 99 103 108 113 109 108 89 130 96 124 107 106 108 193 214 210 203 201 197 193 180 192 194 186 198 183 188
232 234 195 207 226 229 86 101 238 79 93 119 121 101 127 107 142 110 111 112 123 158 88 123 158 210 110 215 219 203 208 203 200 186 192 194 185 142 192 196 194 174 183
223 227 251 208 210 221 226 249 237 257 243 221 219 204 189 162 188 175 133 191 187 171 184 195 111 223 223 209 200 209 204 199 196 191 190 194 198 200 187 191 184 193 194
221 223 243 244 226 211 212 243 238 143 249 236 220 118 205 118 188 192 179 191 181 170 190 197 221 206 208 209 204 202 200 197 195 187 188 190 195 175 182 188 194 185 191
227 208 226 237 128 270 279 225 236 234 248 237 228 220 216 200 208 125 187 187 184 181 186 192 201 204 206 208 197 196 201 198 198 194 190 189 175 178 186 185 182 181 183
Wind_Speed
36 40 42 38 37 24 33 33 32 32 31 29 20 23 28 18 18 19 25 29 25 38 34 38 37 38 41 44 46 46 49 51 52 54 47 55 58 61 60 61 62 60 58
51 40 42 41 42 36 37 35 39 35 32 32 31 31 29 29 32 33 35 40 33 45 40 12 17 41 42 45 49 45 48 51 57 51 53 59 62 58 61 60 67 65 53
56 48 46 45 39 43 14 15 35 40 32 30 33 33 32 33 28 34 35 39 12 44 32 49 54 44 44 46 57 17 55 58 61 64 64 63 44 59 73 55 73 56 59
55 57 47 39 17 15 33 18 41 28 33 35 36 34 34 24 35 13 15 23 46 43 25 30 28 31 56 37 59 44 53 58 61 65 62 72 66 39 39 63 27 66 61
51 51 38 35 35 27 28 25 33 32 41 40 36 18 21 23 35 20 41 45 36 39 41 34 43 43 53 52 55 50 58 41 62 32 69 70 55 29 49 45 58 59 47
23 59 19 56 47 50 51 33 42 38 38 43 34 32 37 15 39 40 44 48 46 45 28 51 62 50 61 62 52 58 57 42 66 68 48 72 49 63 51 60 47 54 44
25 26 58 18 32 16 59 40 53 57 33 46 35 35 42 47 42 27 47 47 47 50 55 46 58 11 38 47 57 64 61 57 51 69 66 52 51 51 68 48 44 43 50
55 71 36 32 17 54 53 17 36 56 31 28 39 14 33 12 56 47 42 59 44 52 56 11 38 16 52 32 50 46 20 28 59 75 78 77 73 67 67 50 48 44 46
30 27 25 22 21 56 55 42 63 51 24 48 47 34 38 45 13 12 54 51 30 12 27 21 21 47 44 23 21 23 35 49 79 56 81 77 71 65 61 40 43 42 44
32 26 25 24 24 22 20 19 19 50 30 36 17 33 50 51 48 14 12 12 15 28 17 38 22 25 48 29 31 62 73 36 71 40 59 68 68 64 60 47 49 45 43
33 29 29 51 28 23 22 21 58 40 52 33 21 26 18 16 16 15 14 17 16 17 32 20 21 54 27 34 76 75 36 35 81 77 75 69 68 63 52 50 43 42 41
38 59 43 35 45 30 55 24 44 50 21 23 19 20 21 20 19 17 18 20 17 23 22 25 28 74 30 28 29 36 67 80 78 75 73 61 66 48 50 49 46 45 47
42 38 44 39 33 36 33 26 24 36 26 28 26 24 20 25 22 22 23 24 25 26 30 32 35 41 31 32 38 40 42 45 72 73 68 69 64 49 52 49 47 49 48
45 66 40 42 43 36 31 28 49 28 66 31 34 42 28 28 26 23 29 26 59 30 24 36 43 48 79 38 40 77 43 46 46 45 50 70 60 50 50 47 45 45 46
63 52 43 47 42 39 41 67 30 30 38 37 39 34 30 63 27 50 28 29 32 22 35 79 84 62 38 43 45 57 46 48 73 67 58 61 53 52 47 43 43 42 43
45 45 46 30 44 40 43 38 32 34 38 43 44 51 71 75 67 68 69 55 41 43 66 44 68 72 45 79 78 57 49 51 53 56 68 59 54 48 54 52 50 51 53
67 68 67 63 47 25 47 44 35 38 45 45 44 75 68 61 41 46 43 43 44 44 45 46 43 40 46 48 46 51 51 54 56 58 60 57 56 58 59 58 58 60 57
68 67 67 67 71 62 62 40 42 38 54 45 41 48 68 49 46 40 59 58 46 31 49 48 44 41 48 49 51 56 58 70 70 63 62 57 58 62 62 64 64 63 64
37 50 63 64 53 61 41 59 55 58 57 47 43 49 51 59 49 51 48 47 50 50 50 47 47 49 52 53 57 60 70 69 70 70 64 58 61 63 64 66 67 67 70
49 44 53 63 63 35 69 44 59 33 54 57 49 58 56 53 54 44 46 49 53 54 47 48 52 48 54 54 60 61 64 71 70 61 61 60 65 65 67 69 69 71 72
67 68 47 50 60 59 46 68 71 45 27 42 57 48 53 44 50 49 52 58 60 57 48 43 50 59 58 62 64 69 67 70 60 61 63 64 66 68 70 71 74 73 74
64 69 66 65 63 50 43 48 61 48 36 45 48 49 49 51 53 55 56 57 57 57 51 54 58 69 62 65 67 64 61 59 60 63 65 67 70 73 73 75 76 75 77
61 66 65 65 63 60 40 55 64 34 48 55 56 52 53 57 57 57 59 59 64 62 53 70 60 58 66 61 59 62 60 60 64 68 69 69 73 63 76 78 78 77 80
63 63 60 66 64 62 60 61 64 60 67 72 73 72 63 56 65 58 60 61 60 60 60 58 65 58 56 58 62 61 61 65 67 71 74 76 78 80 78 80 81 84 85
64 63 60 58 64 65 62 63 64 61 62 66 71 56 71 58 66 67 61 63 62 58 62 60 56 56 58 59 62 64 66 69 70 69 74 80 81 82 84 88 92 91 93
63 68 63 58 36 51 52 61 66 64 62 64 67 68 68 70 69 57 66 64 63 62 64 63 60 58 59 61 65 68 70 73 74 73 72 76 80 87 89 92 94 95 99
Wind_Direction
231 235 243 237 240 230 236 249 251 258 246 254 261 247 266 246 255 256 264 270 270 280 274 280 275 274 277 277 277 273 273 273 272 272 273 275 273 271 273 274 273 275 273
247 239 236 239 242 238 243 243 264 261 251 261 268 252 266 277 267 273 288 285 269 278 280 270 274 274 275 277 280 283 282 279 275 280 276 272 273 276 277 278 274 275 281
253 242 243 239 240 244 223 230 249 259 246 245 261 269 262 275 271 272 278 281 266 285 275 276 276 279 278 279 277 299 275 277 278 277 276 276 280 275 279 281 280 281 281
254 258 245 241 210 213 247 244 257 252 249 253 257 260 262 268 276 218 245 266 285 277 280 281 283 280 280 282 279 286 277 277 277 281 282 281 286 287 289 282 288 281 283
251 245 241 239 246 251 250 254 255 254 260 260 261 256 265 262 270 273 279 282 280 277 276 281 278 280 280 282 283 284 284 286 279 292 279 284 283 292 284 287 282 288 285
206 246 204 243 250 251 249 258 255 257 259 262 256 265 266 249 270 271 279 284 277 278 288 284 283 278 283 284 283 286 283 286 278 279 286 293 284 297 281 284 287 289 288
210 227 248 229 256 233 249 255 251 252 260 256 263 265 266 267 266 278 276 273 273 274 281 280 281 279 290 280 283 292 282 284 284 287 287 289 285 283 299 283 293 289 281
257 258 242 241 209 254 252 234 250 249 272 263 258 262 270 264 271 269 275 277 276 277 281 283 285 302 287 292 284 286 315 314 291 296 298 302 305 298 301 296 290 286 280
218 217 217 215 213 253 249 254 252 258 251 255 254 269 269 265 230 232 274 273 276 277 291 292 293 283 286 306 312 310 302 295 296 288 301 300 302 299 301 296 290 288 281
222 224 223 221 221 227 228 243 234 256 260 265 239 265 261 264 267 252 257 275 283 283 296 285 300 305 287 304 305 290 291 309 290 299 296 304 301 299 297 292 286 282 282
223 223 226 248 223 220 234 239 253 250 262 255 238 250 246 251 257 264 276 282 289 300 286 300 310 284 298 293 286 290 304 307 296 296 299 297 301 298 294 290 285 281 277
222 252 227 226 243 218 242 223 246 249 242 243 244 244 245 259 266 273 277 284 294 292 298 294 291 281 302 307 309 301 292 293 294 295 300 294 301 289 289 287 282 280 277
233 230 227 228 228 233 236 240 231 250 243 244 237 250 260 254 266 276 275 280 287 293 294 297 297 287 301 305 307 301 299 299 292 294 295 299 302 292 294 284 281 280 281
229 259 236 233 236 236 235 232 246 241 260 248 249 258 251 253 268 276 279 281 277 289 294 296 289 286 283 303 304 288 298 299 300 300 297 298 298 292 292 287 284 282 281
256 249 232 227 230 235 238 253 246 252 253 257 254 262 258 261 267 267 277 278 279 290 286 279 278 281 304 300 296 290 297 297 292 293 299 298 291 289 285 284 281 277 276
232 231 237 251 236 236 236 237 247 248 253 258 259 260 262 261 263 265 268 272 275 278 276 284 278 279 293 282 282 290 295 297 297 297 293 292 289 283 291 287 281 280 280
254 253 254 251 242 253 240 241 248 248 255 253 260 260 263 264 266 269 273 271 275 278 282 284 286 299 290 291 291 293 293 295 295 297 298 287 281 287 290 283 282 288 281
255 254 252 252 254 254 255 243 242 252 259 255 256 261 263 266 264 270 272 271 279 288 278 280 285 296 287 291 291 290 293 287 286 294 294 282 280 286 287 279 280 281 281
256 250 256 250 242 249 246 249 251 257 258 263 264 263 264 265 265 265 270 273 278 277 277 282 285 289 287 286 291 294 282 285 288 289 290 280 281 281 286 288 279 286 283
244 238 246 255 254 246 250 256 253 256 252 257 261 261 263 264 266 272 271 274 275 276 279 286 285 297 285 295 289 290 288 297 286 283 282 279 282 284 284 287 281 285 283
254 254 257 248 256 252 246 250 254 256 268 255 258 259 263 271 267 268 275 271 271 277 283 297 295 284 285 286 291 293 284 288 282 281 280 281 286 284 284 287 283 283 288
252 254 255 257 254 245 252 250 251 252 268 258 260 264 267 268 271 273 273 274 276 278 292 286 288 286 284 285 287 282 280 281 282 281 281 281 288 285 285 288 284 288 288
251 252 254 256 257 254 251 251 250 268 260 260 263 265 264 269 268 273 275 276 276 278 293 281 281 279 285 282 281 282 282 281 280 284 284 283 287 286 286 285 286 290 289
251 253 257 257 258 256 253 250 250 243 248 254 255 258 262 260 265 266 273 273 275 280 281 281 283 280 279 280 283 281 281 282 283 287 290 289 289 289 291 291 291 290 290
251 253 258 256 255 256 254 251 249 255 243 248 254 261 258 268 265 267 270 272 274 276 281 282 281 283 281 281 282 282 283 284 285 289 290 293 293 296 295 295 295 295 295
253 250 254 255 256 250 247 250 247 248 242 245 250 253 255 260 260 278 269 271 275 277 280 283 283 282 283 282 285 287 284 286 287 288 290 290 294 295 296 297 298 299 298